Regional Weather Roundup
Issued by NWS

Home | Current Version | Previous Version | Graphics & Text | Print | Product List | Glossary On
Versions: 1 2 3 4 5 6 7 8 9 10 11 12 13 14 15 16 17 18 19 20 21 22 23 24 25 26 27 28 29 30 31 32 33 34 35 36 37 38 39 40 41 42 43 44 45 46 47 48 49 50
000
ASUS44 KMEG 042310
RWRTN
TENNESSEE HOURLY STATE WEATHER ROUNDUP
NATIONAL WEATHER SERVICE MEMPHIS TN
600 PM CDT FRI SEP 04 2015

TNZ002-004-019-021-049-052-054-088>092-050000-
WEST TENNESSEE

CITY           SKY/WX    TMP DP  RH WIND       PRES   REMARKS
MEMPHIS INTL   PTSUNNY   93  69  45 NE6       29.97S HX  98
NWS MEMPHIS      N/A     92 N/A N/A MISG        N/A
JACKSON        PTSUNNY   87  75  67 CALM      29.98S HX  96
DYERSBURG      PTSUNNY   90  72  55 N3        29.98F HX  96
UNION CITY     SUNNY     91  70  49 N5        29.97S HX  97
PARIS          SUNNY     90  68  48 NE5       30.00S HX  93
LEXINGTON      SUNNY     81  68  65 CALM      29.99S
$$

TNZ008-025-027-028-033-062-065-066-050000-
NORTH MIDDLE TENNESSEE

CITY           SKY/WX    TMP DP  RH WIND       PRES   REMARKS
NASHVILLE      MOSUNNY   92  60  34 CALM      29.99F HX  91
CLARKSVILLE    MOSUNNY   91  62  37 CALM      29.99S HX  91
SMYRNA         SUNNY     32  32 100 SE6       29.99S WCI  26
COOKEVILLE     SUNNY     88  72  58 NE3       30.01S HX  94
CROSSVILLE     SUNNY     84  65  52 N3        30.07F
$$

TNZ061-075-076-078-094-096-097-050000-
SOUTH MIDDLE TENNESSEE

CITY           SKY/WX    TMP DP  RH WIND       PRES   REMARKS
FAYETTEVILLE   SUNNY     84  68  58 CALM      30.00F
TULLAHOMA      SUNNY     86  66  51 N5        30.02F
WINCHESTER     SUNNY     84  72  65 CALM      30.00F
MCMINNVILLE    SUNNY     88  72  58 N5        30.02S HX  94
COLUMBIA       SUNNY     90  70  51 CALM      29.98S HX  95
SHELBYVILLE    SUNNY     90  72  55 CALM      30.01S HX  96
$$

TNZ017-018-042-046-047-050000-
NORTHEAST TENNESSEE

CITY           SKY/WX    TMP DP  RH WIND       PRES   REMARKS
TRI CITIES     PTCLDY    87  64  46 CALM      30.05R
ELIZABETHTON   CLEAR     77  70  78 CALM      30.06S
$$

TNZ012-013-036-069-073-074-050000-
CENTRAL EAST TENNESSEE

CITY           SKY/WX    TMP DP  RH WIND       PRES   REMARKS
KNOXVILLE      MOSUNNY   88  62  41 NE7       30.00R
OAK RIDGE      SUNNY     90  65  43 N3        30.02R HX  92
GATLINBURG     CLEAR     90  59  35 NE5       30.00R
MORRISTOWN     CLEAR     86  64  48 NE5       30.04R
$$

TNZ083-085-099-050000-
SOUTHEAST TENNESSEE

CITY           SKY/WX    TMP DP  RH WIND       PRES   REMARKS
CHATTANOOGA    MOSUNNY   89  65  44 N9        29.99R HX  91
$$

SKY/WX REPORTED AS FAIR MEANS FEW OR NO CLOUDS BELOW
12 THOUSAND FEET.



USA.gov is the U.S. government's official web portal to all federal, state and local government web resources and services.